Tracking 30703 objects as of 13-Jun-2025
HD Live streaming from Space Station
objects crossing your sky now

COSMOS 1275 DEB

Track COSMOS 1275 DEB now!
10-day predictions


NORAD ID: 42187
Int'l Code: 1981-053TB
Perigee: 846.0 km
Apogee: 932.7 km
Inclination: 83.0 °
Period: 102.6 minutes
Semi major axis: 7260 km
RCS: Unknown
Launch date: June 4, 1981
Source: Commonwealth of Independent States (former USSR) (CIS)
Launch site: PLESETSK MISSILE AND SPACE COMPLEX (PKMTR)

Note: This is SATELLITE DEBRIS
Your satellite tracking list
Your tracking list is empty




NASA's NSSDC Master Catalog

Two Line Element Set (TLE):
1 42187U 81053TB  25163.52322104  .00002332  00000-0  14603-2 0  9991
2 42187  82.9656  87.6033 0059724   6.8805 353.3173 14.03344509588099
Source of the keplerian elements: AFSPC